Destin, FL

1:06 AM CST on November 21, 2017 (GMT -0600)
Destin-Fort Walton Beach

Weather History for KDTS - January, 2014

Change the Weather History Date:

Wednesday, January 1, 2014

  Actual Average Record
Temperature  
Mean Temperature 54 °F -  
Max Temperature 59 °F 58 °F 77 °F (2017)
Min Temperature 48 °F 43 °F 32 °F (2001)
Degree Days  
Heating Degree Days 12    
Growing Degree Days 4 (Base 50)    
Moisture  
Dew Point 49 °F    
Average Humidity 82    
Maximum Humidity 93    
Minimum Humidity 72    
Precipitation  
Precipitation 0.06 in - - ()
Sea Level Pressure  
Sea Level Pressure 30.22 in    
Wind  
Wind Speed 6 mph (ENE)    
Max Wind Speed 12 mph    
Max Gust Speed -    
Visibility 10 miles    
Events Rain    
Averages and records for this station are not official NWS values.
T = Trace of Precipitation, MM = Missing Value Source: NWS Daily Summary

Daily Weather History Graph

Daily Weather History Graph

Search for Another Location

Airport or City:

Trip Planner

Search our weather history database for the weather conditions in past years. The results will help you decide how hot, cold, wet, or windy it might be!

Date:

Astronomy

Jan. 01, 2014 Rise Set
Actual Time 6:42 AM CST 4:56 PM CST
Civil Twilight 6:16 AM CST 5:22 PM CST
Nautical Twilight 5:46 AM CST 5:52 PM CST
Astronomical Twilight 5:17 AM CST 6:22 PM CST
Moon 6:37 AM CST (1/1) 5:35 PM CST (1/1)
Length of Visible Light 11h 06m
Length of Day
10h 13m
New Moon, 0% of the Moon is Illuminated
Jan 1
New Moon
Jan 7
First Quarter
Jan 15
Full
Jan 23
Last Quarter
Jan 30
New

Hourly Weather History & Observations

Time (CST) Temp. Dew Point Humidity Pressure Visibility Wind Dir Wind Speed Gust Speed Precip Events Conditions
12:53 AM 48.9 °F 41.0 °F 74% 30.31 in 10.0 mi East 6.9 mph - N/A   Overcast
1:53 AM 48.9 °F 42.1 °F 77% 30.30 in 10.0 mi ENE 5.8 mph - 0.00 in   Overcast
2:53 AM 48.0 °F 42.1 °F 80% 30.30 in 10.0 mi NNE 4.6 mph - 0.00 in Rain Light Rain
3:53 AM 48.0 °F 42.1 °F 80% 30.30 in 10.0 mi ENE 4.6 mph - 0.01 in Rain Light Rain
4:53 AM 48.0 °F 44.1 °F 86% 30.29 in 10.0 mi ENE 3.5 mph - 0.00 in Rain Light Rain
5:53 AM 48.9 °F 45.0 °F 86% 30.29 in 10.0 mi East 3.5 mph - 0.00 in   Overcast
6:53 AM 48.9 °F 44.1 °F 83% 30.28 in 10.0 mi ESE 8.1 mph - 0.00 in   Overcast
7:53 AM 50.0 °F 46.0 °F 86% 30.29 in 10.0 mi Calm Calm - 0.00 in Rain Light Rain
8:53 AM 52.0 °F 46.9 °F 83% 30.30 in 10.0 mi East 4.6 mph - 0.00 in   Mostly Cloudy
9:53 AM 57.0 °F 51.1 °F 81% 30.30 in 10.0 mi ESE 8.1 mph - 0.00 in   Partly Cloudy
10:24 AM 57.9 °F 52.0 °F 81% 30.29 in 10.0 mi SE 11.5 mph - N/A   Mostly Cloudy
10:37 AM 57.9 °F 52.0 °F 81% 30.28 in 10.0 mi SE 10.4 mph - N/A   Scattered Clouds
10:53 AM 57.9 °F 52.0 °F 81% 30.27 in 10.0 mi SE 9.2 mph - N/A   Partly Cloudy
11:53 AM 59.0 °F 53.1 °F 81% 30.24 in 10.0 mi Variable 4.6 mph - 0.00 in   Mostly Cloudy
12:14 PM 57.0 °F 51.1 °F 81% 30.22 in 10.0 mi ENE 5.8 mph - N/A   Mostly Cloudy
12:24 PM 55.9 °F 50.0 °F 80% 30.21 in 10.0 mi NE 6.9 mph - N/A   Scattered Clouds
12:53 PM 55.0 °F 50.0 °F 83% 30.19 in 10.0 mi ENE 6.9 mph - N/A   Clear
1:53 PM 57.0 °F 51.1 °F 81% 30.17 in 10.0 mi NE 5.8 mph - 0.00 in Rain Light Rain
2:53 PM 59.0 °F 50.0 °F 72% 30.16 in 10.0 mi NE 6.9 mph - 0.00 in   Clear
3:53 PM 57.9 °F 50.0 °F 75% 30.14 in 10.0 mi ENE 5.8 mph - N/A   Mostly Cloudy
4:53 PM 57.0 °F 50.0 °F 77% 30.13 in 10.0 mi East 6.9 mph - N/A   Overcast
5:53 PM 55.9 °F 51.1 °F 84% 30.12 in 10.0 mi East 5.8 mph - N/A   Partly Cloudy
6:53 PM 55.9 °F 51.1 °F 84% 30.12 in 10.0 mi East 5.8 mph - N/A   Partly Cloudy
7:53 PM 55.9 °F 52.0 °F 87% 30.15 in 10.0 mi East 3.5 mph - N/A   Overcast
8:53 PM 55.9 °F 52.0 °F 87% 30.13 in 10.0 mi ENE 4.6 mph - N/A   Overcast
9:53 PM 55.0 °F 52.0 °F 89% 30.14 in 10.0 mi ENE 3.5 mph - 0.00 in Rain Light Rain
10:53 PM 54.0 °F 52.0 °F 93% 30.10 in 9.0 mi ENE 4.6 mph - 0.05 in Rain Light Rain
11:53 PM 54.0 °F 51.1 °F 90% 30.06 in 10.0 mi ENE 6.9 mph - 0.00 in Rain Light Rain